Station LONF1 - Long Key, FL Image indicating link to RSS feed of recent meteorological observations for station LONF1


Conditions at LONF1 as of
(12:40 pm EDT)
1640 GMT on 05/22/2024:
     

Click on the graph icon in the table below to see a time series plot of the last five days of that observation.

5-day plot - Wind Direction Wind Direction (WDIR):ENE ( 60 deg true )
5-day plot - Wind Speed Wind Speed (WSPD): 6 kts
5-day plot - Wind Gust Wind Gust (GST): 9 kts
5-day plot - Atmospheric Pressure Atmospheric Pressure (PRES):29.95 in
5-day plot - Air Temperature Air Temperature (ATMP): 83.5 °F
5-day plot - Dew Point Dew Point (DEWP): 73.4 °F
5-day plot - Heat Index Heat Index (HEAT): 90.0 °F
5-day plot - Wind Speed at 10 Meters Wind Speed at 10 meters (WSPD10M): 8 kts
5-day plot - Wind Speed at 20 Meters Wind Speed at 20 meters (WSPD20M): 8 kts
5-day plot -  Wind Speed, Wind Gust and Atmospheric Pressure Combined plot of Wind Speed, Gust, and Air Pressure
Supplemental Measurements
Highest 1-minute Wind Speed
Time (EDT)5-day plot - 1-Minute Wind Speed WSPD 5-day plot - 1-Minute Wind Direction WDIR
12:36 pm 8 kts-
Previous observations
TIME
(EDT)
5-day plot - Wind Direction
WDIR
 
5-day plot - Wind Speed
WSPD
kts
5-day plot - Wind Gust
GST
kts
5-day plot - Wave Height
WVHT
ft
5-day plot - Dominant Wave Period
DPD
sec
5-day plot - Average Wave Period
APD
sec
5-day plot - Mean Wave Direction
MWD
 
5-day plot - Atmospheric Pressure
PRES
in
5-day plot - Pressure Tendency
PTDY
in
5-day plot - Air Temperature
ATMP
°F
5-day plot - Water Temperature
WTMP
°F
5-day plot - Dew Point
DEWP
°F
5-day plot - Salinity
SAL
psu
5-day plot - Visibility
VIS
nmi
5-day plot - Tide (above MLLW)
TIDE
ft
2024-05-22 12:30 pmENE 6 9----29.95- 83.3- 72.9---
2024-05-22 12:20 pm E 7 9----29.96- 83.5- 73.2---
2024-05-22 12:10 pm E 6 9----29.96- 83.5- 72.0---
2024-05-22 12:00 pmENE 6 9----29.96+0.02 83.7- 72.1---
2024-05-22 11:50 amENE 7 9----29.96- 83.5- 72.0---
2024-05-22 11:40 am E 7 9----29.97- 83.7- 72.5---
2024-05-22 11:30 am E 7 9----29.96- 83.5- 72.5---
2024-05-22 11:20 am E 8 11----29.97- 83.3- 72.9---
2024-05-22 11:10 am E 8 10----29.96- 83.3- 72.7---
2024-05-22 11:00 amESE 8 10----29.97+0.03 83.3- 72.7---
2024-05-22 10:50 am E 8 11----29.97- 83.5- 72.7---
2024-05-22 10:40 am E 7 10----29.96- 83.5- 72.5---
2024-05-22 10:30 am E 8 10----29.97- 83.5- 72.5---
2024-05-22 10:20 amESE 8 11----29.97- 83.3- 72.3---
2024-05-22 10:10 am E 8 11----29.96- 83.1- 72.9---
2024-05-22 10:00 amESE 8 11----29.96+0.05 83.1- 73.2---
2024-05-22 09:50 amESE 9 13----29.96- 83.1- 73.2---
2024-05-22 09:40 am E 9 11----29.96- 82.9- 73.8---
2024-05-22 09:30 am E 8 11----29.95- 82.9- 74.7---
2024-05-22 09:20 am E 8 10----29.95- 82.8- 74.1---
2024-05-22 09:10 am E 8 10----29.95- 82.9- 73.9---
2024-05-22 09:00 amESE 7 9----29.95+0.07 82.8- 73.8---
2024-05-22 08:50 am E 6 9----29.94- 82.8- 73.8---
2024-05-22 08:40 am E 7 10----29.94- 82.8- 73.8---
2024-05-22 08:30 am E 7 10----29.94- 82.6- 73.9---
2024-05-22 08:20 am E 6 9----29.94- 82.4- 73.8---
2024-05-22 08:10 am E 7 9----29.94- 82.6- 74.8---
2024-05-22 08:00 am E 7 10----29.93+0.06 82.4- 74.5---
2024-05-22 07:50 am E 7 10----29.93- 82.4- 74.5---
2024-05-22 07:40 am E 8 9----29.93- 82.2- 73.9---
2024-05-22 07:30 amENE 7 10----29.92- 82.2- 73.8---
2024-05-22 07:20 am E 7 9----29.92- 82.2- 73.8---
2024-05-22 07:10 amENE 4 7----29.91- 82.2- 73.4---
2024-05-22 07:00 amENE 3 7----29.91+0.06 82.0- 73.2---
2024-05-22 06:50 am N 1 4----29.91- 82.0- 73.4---
2024-05-22 06:40 amENE 2 5----29.90- 82.0- 73.4---
2024-05-22 06:30 amENE 2 5----29.89- 81.9- 73.4---
2024-05-22 06:20 amESE 5 8----29.88- 81.9- 73.6---
2024-05-22 06:10 amESE 7 9----29.89- 81.9- 73.6---
2024-05-22 06:00 am SE 7 9----29.87+0.01 81.9- 73.4---
2024-05-22 05:50 amSSE 6 9----29.88- 81.9- 73.6---
2024-05-22 05:40 am SE 6 9----29.88- 81.9- 73.8---
2024-05-22 05:30 am SE 8 10----29.87- 81.9- 73.8---
2024-05-22 05:20 amSSE 6 9----29.87- 81.9- 73.6---
2024-05-22 05:10 amSSE 7 9----29.87- 81.9- 73.8---
2024-05-22 05:00 amSSE 5 8----29.87+0.00 81.7- 74.1---
2024-05-22 04:50 am SE 6 8----29.87- 81.9- 74.7---
2024-05-22 04:40 amSSE 4 7----29.86- 81.9- 74.7---
2024-05-22 04:30 am S 4 8----29.86- 81.9- 74.7---
2024-05-22 04:20 amSSE 7 10----29.86- 82.0- 75.0---
2024-05-22 04:10 am NE 3 7----29.85- 81.9- 74.7---
2024-05-22 04:00 am E 3 6----29.85-0.04 82.0- 75.0---
2024-05-22 03:50 am NE 2 5----29.85- 82.0- 74.8---
2024-05-22 03:40 am N 2 4----29.85- 82.0- 74.8---
2024-05-22 03:20 amNNW 2 3----29.85-------
2024-05-22 03:10 amNNW 2 3----29.86- 82.2- 74.7---
2024-05-22 03:00 amNNW 1 3----29.86-0.04 82.2- 74.3---
2024-05-22 02:50 am- 0 1----29.86- 82.2- 74.3---
2024-05-22 02:40 am- 0 2----29.86- 82.2- 74.3---
2024-05-22 02:30 am- 0 2----29.86- 82.2- 74.5---
2024-05-22 02:20 amNNW 1 4----29.85- 82.0- 74.3---
2024-05-22 02:10 amNNW 2 4----29.86- 82.2- 74.7---
2024-05-22 02:00 amWNW 3 4----29.87-0.03 82.2- 74.8---
2024-05-22 01:50 am SW 5 10----29.87- 82.6- 75.4---
2024-05-22 01:40 am SE 7 10----29.87- 83.1- 73.9---
2024-05-22 01:30 amESE 7 9----29.88- 83.1- 73.6---
2024-05-22 01:20 amESE 6 8----29.88- 83.3- 73.6---
2024-05-22 01:10 amESE 7 9----29.88- 83.3- 73.4---
2024-05-22 01:00 am E 6 9----29.89-0.01 83.1- 73.4---
2024-05-22 12:50 am E 8 12----29.89- 83.1- 73.8---
2024-05-22 12:40 amESE 8 10----29.89- 82.9- 73.9---
2024-05-22 12:30 amESE 8 10----29.89- 83.1- 74.3---
2024-05-22 12:20 amESE 7 10----29.89- 83.3- 73.8---
2024-05-22 12:10 amESE 7 9----29.89- 83.3- 73.8---
2024-05-22 12:00 amESE 6 9----29.90+0.01 83.3- 73.8---
2024-05-21 11:50 pm E 5 8----29.90- 83.3- 73.8---
2024-05-21 11:40 pmENE 4 7----29.90- 83.5- 73.8---
2024-05-21 11:30 pm N 1 4----29.90- 83.5- 73.2---
2024-05-21 11:20 pm N 2 4----29.90- 83.3- 73.4---
2024-05-21 11:10 pmNNE 2 5----29.90- 83.3- 73.6---
2024-05-21 11:00 pmENE 3 6----29.90+0.02 83.3- 73.9---
2024-05-21 10:50 pmSSE 3 7----29.90- 82.9- 73.9---
2024-05-21 10:40 pm NE 5 10----29.90- 82.4- 73.9---
2024-05-21 10:30 pm NE 7 12----29.90- 83.1- 73.8---
2024-05-21 10:20 pm E 7 9----29.90- 83.5- 73.9---
2024-05-21 10:10 pm E 6 9----29.90- 83.5- 73.6---
2024-05-21 10:00 pm E 6 10----29.90+0.03 83.7- 73.6---
2024-05-21 09:50 pm E 5 8----29.89- 83.7- 73.6---
2024-05-21 09:40 pm NE 2 6----29.89- 83.5- 73.6---
2024-05-21 09:30 pm NE 2 7----29.89- 83.5- 73.8---
2024-05-21 09:20 pm E 5 8----29.89- 83.5- 73.6---
2024-05-21 09:10 pm E 4 7----29.89- 83.7- 73.9---
2024-05-21 09:00 pmENE 3 8----29.89+0.05 83.5- 73.4---
2024-05-21 08:50 pm--------- 83.5- 73.6---
2024-05-21 08:40 pm E 3 6----29.88- 83.5- 74.1---
2024-05-21 08:30 pm E 3 7----29.88- 83.3- 73.8---
2024-05-21 08:20 pm E 5 8----29.88- 83.5- 74.3---
2024-05-21 08:10 pm E 4 6----29.88- 83.5- 74.3---
2024-05-21 08:00 pm E 4 6----29.88+0.04 83.7- 74.1---
2024-05-21 07:50 pm E 3 6----29.87- 83.7- 73.4---
2024-05-21 07:40 pmESE 4 6----29.87- 83.5- 73.8---
2024-05-21 07:30 pmESE 4 6----29.87- 83.3- 74.3---
2024-05-21 07:20 pm E 6 8----29.87- 83.7- 74.3---
2024-05-21 07:10 pm E 6 7----29.86- 83.5- 74.3---
2024-05-21 07:00 pm E 6 8----29.86+0.01 83.3- 73.9---
2024-05-21 06:50 pm E 7 9----29.86- 83.1- 74.1---
2024-05-21 06:40 pm E 7 9----29.86- 83.3- 74.7---
2024-05-21 06:30 pm E 7 10----29.85- 83.5- 74.3---
2024-05-21 06:20 pmENE 4 8----29.84- 83.7- 72.3---
2024-05-21 06:10 pm NE 3 5----29.84- 83.7- 72.3---
2024-05-21 06:00 pmNNE 3 5----29.84-0.03 83.5- 73.0---
2024-05-21 05:50 pm N 4 5----29.83- 83.5- 73.9---
2024-05-21 05:40 pmNNE 4 6----29.84- 83.5- 73.6---
2024-05-21 05:30 pmNNE 2 4----29.84- 83.8- 73.0---
2024-05-21 05:20 pm- 0 0----29.84- 84.2- 72.9---
2024-05-21 05:10 pm- 0 1----29.83- 84.9- 73.0---
2024-05-21 05:00 pm- 0 2----29.83-0.05 84.7- 73.2---
2024-05-21 04:50 pm- 0 1----29.84- 84.6- 73.0---
2024-05-21 04:40 pm- 0 1----29.84- 85.1- 73.0---
2024-05-21 04:30 pm- 0 1----29.84- 84.7- 73.9---
2024-05-21 04:20 pm- 0 2----29.85- 83.3- 73.2---
2024-05-21 04:10 pmWNW 1 2----29.84- 83.3- 73.8---
2024-05-21 04:00 pm W 1 4----29.85-0.04 82.9- 73.4---
2024-05-21 03:50 pmSSE 2 3----29.86- 82.9- 74.3---
2024-05-21 03:40 pmSSW 1 3----29.86- 82.9- 75.0---
2024-05-21 03:30 pm- 0 2----29.86- 82.8- 75.0---
2024-05-21 03:20 pm- 0 1----29.86- 82.8- 75.4---
2024-05-21 03:10 pm--------- 82.8- 75.4---
2024-05-21 03:00 pm- 0 2----29.87-0.02 82.9- 75.4---
2024-05-21 02:50 pm- 0 4----29.86- 82.8- 75.0---
2024-05-21 02:40 pm- 0 1----29.86- 82.9- 75.2---
2024-05-21 02:30 pm- 0 1----29.86- 82.8- 75.0---
2024-05-21 02:20 pm- 0 5----29.87- 82.9- 75.2---
2024-05-21 02:10 pm- 0 2----29.88- 82.8- 75.0---
2024-05-21 02:00 pmWNW 1 2----29.88+0.00 82.8- 75.2---
2024-05-21 01:50 pmWNW 1 2----29.88- 82.8- 75.0---
2024-05-21 01:40 pm- 0 4----29.88- 82.4- 74.7---
2024-05-21 01:30 pm NE 1 4----29.88- 82.4- 74.7---
2024-05-21 01:20 pm E 2 4----29.88- 82.4- 74.5---
2024-05-21 01:10 pm E 2 3----29.88- 82.2- 74.1---
2024-05-21 01:00 pm E 3 4----29.89+0.00 81.9- 73.9---
2024-05-21 12:50 pm E 4 5----29.89- 81.7- 74.3---